EN

Hourly Weather Ovoschnoy

Today, 25 February, Thursday

Time Temperature Precipitation Wind Pressure Humidity
00:00 -14°C° 0 mm 3 mps 778 mmHg 65%
01:00 -14°C° 0 mm 3 mps 777 mmHg 66%
02:00 -14°C° 0 mm 3 mps 777 mmHg 67%
03:00 -14°C° 0 mm 3 mps 777 mmHg 67%
04:00 -13°C° 0 mm 2 mps 777 mmHg 66%
05:00 -13°C° 0 mm 2 mps 776 mmHg 65%
06:00 -11°C° 0 mm 1 mps 776 mmHg 64%
07:00 -13°C° 0 mm 2 mps 776 mmHg 61%
08:00 -12°C° 0 mm 2 mps 776 mmHg 57%
09:00 -10°C° 0 mm 2 mps 776 mmHg 53%
10:00 -9°C° 0 mm 2 mps 775 mmHg 48%
11:00 -7°C° 0 mm 2 mps 775 mmHg 43%
12:00 -6°C° 0 mm 2 mps 774 mmHg 38%
13:00 -5°C° 0 mm 2 mps 774 mmHg 37%
14:00 -5°C° 0 mm 3 mps 773 mmHg 37%
15:00 -4°C° 0 mm 3 mps 773 mmHg 36%
16:00 -4°C° 0 mm 3 mps 772 mmHg 42%
17:00 -4°C° 0 mm 3 mps 772 mmHg 49%
18:00 -5°C° 0 mm 3 mps 772 mmHg 55%
19:00 -4°C° 0 mm 4 mps 771 mmHg 61%
20:00 -5°C° 0 mm 5 mps 771 mmHg 66%
21:00 -5°C° 0 mm 5 mps 771 mmHg 72%
22:00 -4°C° 0 mm 6 mps 770 mmHg 77%
23:00 -4°C° 0 mm 6 mps 770 mmHg 81%

Tomorrow, 26 February, Friday

Time Temperature Precipitation Wind Pressure Humidity
00:00 -3°C° 0 mm 7 mps 770 mmHg 86%
01:00 -3°C° 0 mm 7 mps 769 mmHg 88%
02:00 -2°C° 0 mm 7 mps 769 mmHg 90%
03:00 -2°C° 0 mm 6 mps 768 mmHg 92%
04:00 -2°C° 0 mm 6 mps 768 mmHg 93%
05:00 -2°C° 0 mm 6 mps 768 mmHg 94%
06:00 -1°C° 0 mm 5 mps 767 mmHg 96%
07:00 0°C° 0.1 mm 5 mps 767 mmHg 96%
08:00 0°C° 0.1 mm 5 mps 767 mmHg 97%
09:00 0°C° 0.1 mm 5 mps 767 mmHg 97%
10:00 0°C° 0.1 mm 5 mps 767 mmHg 97%
11:00 0°C° 0.1 mm 5 mps 767 mmHg 97%
12:00 +1°C° 0.1 mm 5 mps 766 mmHg 98%
13:00 +1°C° 0 mm 5 mps 766 mmHg 97%
14:00 +1°C° 0 mm 5 mps 766 mmHg 96%
15:00 +2°C° 0 mm 5 mps 766 mmHg 96%
16:00 +2°C° 0 mm 5 mps 765 mmHg 96%
17:00 +1°C° 0 mm 5 mps 765 mmHg 96%
18:00 +1°C° 0 mm 5 mps 765 mmHg 97%
19:00 +1°C° 0 mm 5 mps 765 mmHg 96%
20:00 +1°C° 0 mm 6 mps 765 mmHg 96%
21:00 +1°C° 0 mm 6 mps 764 mmHg 96%
22:00 +2°C° 0 mm 6 mps 764 mmHg 95%
23:00 +2°C° 0 mm 6 mps 763 mmHg 95%

Day after tomorrow, 27 February, Saturday

Time Temperature Precipitation Wind Pressure Humidity
00:00 +2°C° 0 mm 6 mps 763 mmHg 95%
01:00 +2°C° 0 mm 6 mps 762 mmHg 95%
02:00 +3°C° 0 mm 7 mps 762 mmHg 94%
03:00 +3°C° 0 mm 7 mps 762 mmHg 94%
04:00 +2°C° 0 mm 7 mps 761 mmHg 94%
05:00 +2°C° 0 mm 6 mps 761 mmHg 95%
06:00 +2°C° 0 mm 6 mps 760 mmHg 95%
07:00 +2°C° 0 mm 6 mps 760 mmHg 95%
08:00 +2°C° 0 mm 6 mps 760 mmHg 96%
09:00 +2°C° 0 mm 6 mps 760 mmHg 96%
10:00 +2°C° 0.1 mm 6 mps 759 mmHg 95%
11:00 +3°C° 0.1 mm 6 mps 759 mmHg 95%
12:00 +3°C° 0.1 mm 6 mps 759 mmHg 94%
13:00 +3°C° 0.6 mm 6 mps 758 mmHg 95%
14:00 +3°C° 0.6 mm 6 mps 758 mmHg 95%
15:00 +2°C° 0.6 mm 5 mps 758 mmHg 96%
16:00 +2°C° 0.8 mm 5 mps 758 mmHg 96%
17:00 +3°C° 0.8 mm 4 mps 757 mmHg 96%
18:00 +2°C° 0.8 mm 3 mps 757 mmHg 97%
19:00 +2°C° 0.4 mm 3 mps 757 mmHg 97%
20:00 +2°C° 0.4 mm 3 mps 758 mmHg 97%
21:00 +2°C° 0.4 mm 3 mps 758 mmHg 97%
22:00 +2°C° 0 mm 3 mps 758 mmHg 96%
23:00 +2°C° 0 mm 3 mps 758 mmHg 95%

28 February, Sunday

Time Temperature Precipitation Wind Pressure Humidity
00:00 +1°C° 0 mm 3 mps 758 mmHg 95%
01:00 +1°C° 0 mm 3 mps 758 mmHg 94%
02:00 +2°C° 0 mm 2 mps 758 mmHg 93%
03:00 +1°C° 0 mm 2 mps 758 mmHg 92%
04:00 +1°C° 0 mm 2 mps 758 mmHg 92%
05:00 +1°C° 0 mm 2 mps 758 mmHg 92%
06:00 +1°C° 0 mm 2 mps 758 mmHg 92%
07:00 +1°C° 0 mm 2 mps 759 mmHg 92%
08:00 +1°C° 0 mm 3 mps 759 mmHg 92%
09:00 +1°C° 0 mm 3 mps 760 mmHg 91%
10:00 +1°C° 0 mm 3 mps 760 mmHg 89%
11:00 +2°C° 0 mm 3 mps 760 mmHg 87%
12:00 +2°C° 0 mm 3 mps 760 mmHg 84%
13:00 +2°C° 0.1 mm 3 mps 760 mmHg 81%
14:00 +3°C° 0.1 mm 3 mps 761 mmHg 78%
15:00 +3°C° 0.1 mm 3 mps 761 mmHg 75%
16:00 +3°C° 0 mm 3 mps 761 mmHg 75%
17:00 +2°C° 0 mm 3 mps 762 mmHg 75%
18:00 +2°C° 0 mm 3 mps 762 mmHg 75%
19:00 +1°C° 0 mm 3 mps 763 mmHg 76%
20:00 0°C° 0 mm 3 mps 763 mmHg 77%
21:00 -1°C° 0 mm 2 mps 764 mmHg 78%
22:00 -1°C° 0 mm 2 mps 764 mmHg 77%
23:00 -1°C° 0 mm 2 mps 765 mmHg 77%

1 March, Monday

Time Temperature Precipitation Wind Pressure Humidity
00:00 -1°C° 0 mm 2 mps 765 mmHg 76%
01:00 -1°C° 0 mm 2 mps 765 mmHg 75%
02:00 -1°C° 0 mm 2 mps 766 mmHg 74%
03:00 -1°C° 0 mm 2 mps 766 mmHg 73%
04:00 -2°C° 0 mm 2 mps 766 mmHg 72%
05:00 -2°C° 0 mm 2 mps 767 mmHg 72%
06:00 -2°C° 0 mm 2 mps 767 mmHg 72%
07:00 -2°C° 0 mm 2 mps 767 mmHg 70%
08:00 -2°C° 0 mm 2 mps 768 mmHg 69%
09:00 -2°C° 0 mm 3 mps 768 mmHg 67%
10:00 -1°C° 0 mm 3 mps 769 mmHg 64%
11:00 -1°C° 0 mm 3 mps 769 mmHg 62%
12:00 0°C° 0 mm 3 mps 770 mmHg 59%
13:00 0°C° 0 mm 3 mps 770 mmHg 59%
14:00 0°C° 0 mm 3 mps 770 mmHg 59%
15:00 +1°C° 0 mm 3 mps 770 mmHg 59%
16:00 +1°C° 0 mm 2 mps 770 mmHg 62%
17:00 -1°C° 0 mm 2 mps 770 mmHg 65%
18:00 -1°C° 0 mm 2 mps 770 mmHg 68%
19:00 +1°C° 0 mm 1 mps 770 mmHg 69%
20:00 0°C° 0 mm 1 mps 771 mmHg 69%
21:00 0°C° 0 mm 1 mps 771 mmHg 70%
22:00 0°C° 0 mm 1 mps 771 mmHg 70%
23:00 0°C° 0 mm 1 mps 771 mmHg 70%

2 March, Tuesday

Time Temperature Precipitation Wind Pressure Humidity
00:00 0°C° 0 mm 1 mps 771 mmHg 71%
01:00 0°C° 0 mm 1 mps 771 mmHg 71%
02:00 -2°C° 0 mm 2 mps 771 mmHg 71%
03:00 -2°C° 0 mm 2 mps 771 mmHg 72%
04:00 -2°C° 0 mm 2 mps 770 mmHg 72%
05:00 -2°C° 0 mm 3 mps 770 mmHg 72%
06:00 -2°C° 0 mm 3 mps 770 mmHg 73%
07:00 -3°C° 0 mm 4 mps 770 mmHg 70%
08:00 -2°C° 0 mm 5 mps 769 mmHg 68%
09:00 -2°C° 0 mm 5 mps 769 mmHg 66%
10:00 -2°C° 0 mm 6 mps 768 mmHg 63%
11:00 -1°C° 0 mm 6 mps 768 mmHg 60%
12:00 0°C° 0 mm 7 mps 767 mmHg 58%
13:00 0°C° 0 mm 7 mps 767 mmHg 60%
14:00 0°C° 0 mm 8 mps 766 mmHg 63%
15:00 0°C° 0 mm 8 mps 766 mmHg 66%
16:00 0°C° 0 mm 7 mps 765 mmHg 70%
17:00 0°C° 0 mm 7 mps 765 mmHg 75%
18:00 +1°C° 0 mm 6 mps 765 mmHg 79%
19:00 +1°C° 0 mm 5 mps 765 mmHg 81%
20:00 +1°C° 0 mm 5 mps 765 mmHg 83%
21:00 +1°C° 0 mm 4 mps 765 mmHg 85%
22:00 0°C° 0 mm 4 mps 765 mmHg 85%
23:00 0°C° 0 mm 4 mps 765 mmHg 86%
Show more

We Need Your Consent

Meteoprog and our Service Providers may store and access personal data such as cookies, device identifiers or other similar technologies on your device and process such data to personalise content and ads, as well as provide social media features and to analyse the traffic.

  • Store and/or access information on your device

    Cookies, device identifiers or other information can be stored or accessed on your device for the purposes indicated above.

  • Personalised ads and content, ad and content measurement, audience insights, and products development

    Ads and content can be personalised based on a profile. More data can be added to better personalise ads and content. Ad and content performance can be measured. Insights about the audience who saw the ads and content can be derived. Such data can be used to develop or improve user’s experience, systems and software.

By clicking ‘I Agree’ you will allow the use of indicated cookies, device identifiers, web beacons or other similar technologies. Your settings can be changed in the browser on your device.

For certain purposes, legitimate interests may be relied on, rather than consent. You can read more about this in our Privacy and Cookie Policy.